Startpagina
METAR-TAF:

METAR-TAF

Vliegvelden :

Productieplatform

Goeree Le, Nederland

breedte: 51-55-33N, lengte: 3-40-12E, hoogte: 19 m

Actueel weer

Dit bericht is 19 minuten geleden gemaakt, om 05:55 UTC
Wind 23 kt uit het zuidwesten
Temperatuur 19°C
Vochtigheid 83%
Druk 1014 hPa
Zicht 10 km of meer

METAR: EHSC 160555Z AUTO 22023KT 9999 ///////// 19/16 Q1014 W21/H14

Tijdstip: 08:14 (06:14 UTC)


TAF: ontbreekt

Waarnemingen en weersverwachtingen van meer dan 4000 vliegvelden (METAR en TAF).

De beschikbare stations zijn de gele en rode punten op de kaart.

Ga met uw muis naar het station om de naam te zien.

Klik dan om waarnemingen en weersverwachtingen te zien.

kaart wijzigen: klik op de groene knoppen met een zwart kruis om in te zoomen, op de groene knop met een streepje om uit te zoomen of op de groene pijlen voor aangrenzende kaarten.


METAR-TAF: